IRIDIUM 164 (43577 NORAD) Tracking and Keplerian Element Data

This shows tracking and keplerian element data for the satellite.

Feedback or suggestion? Click here.




ElementValue
Catalog43577
NameIRIDIUM 164
Epoch Orbit16516
Epoch Day262.16470599
Epoch Year2021
RAAN60.5612
Inclination86.3944
Eccentricity0.0002239
Argument of Perigee89.8566
Mean Anonmoly270.2887
Mean Motion14.34216593
Decay Rate1E-08
L11 43577U 18061J 21262.16470599 .00000001 00000-0 -68603-5 0 9996
L22 43577 86.3944 60.5612 0002239 89.8566 270.2887 14.34216593165161

Live tracking and technical data element details for IRIDIUM 164 (NORAD 43577). IRIDIUM 164 can be tracked NOW for your location showing map with azimuth and elevation plus other details from your city location.

Track the satellite on the map from your city or location and see movement details for azimuth, elevation, latitude, longitude, range, height, and movement on the map or in text.







IsCatalogInMostPopularTable: catalog: 43577, numindb: 575
Update: records affected: 1



GetName: 43577 IRIDIUM 164

Hit Count: updated at: Sun, 26 Sep 2021 00:35:38 GMT